{"data":{"norad_id":64665,"epoch":"2026-05-25T05:33:04.303584Z","epoch_age_seconds":68795,"freshness":"FRESH","line1":"1 64665U 25139B   26145.23129981  .00039652  00000+0  11785-2 0  9998","line2":"2 64665  53.1587 130.7595 0001695  19.9300 340.1768 15.34400937 51912","mean_motion":15.34400937,"eccentricity":0.0001695,"inclination_deg":53.1587,"raan_deg":130.7595,"arg_perigee_deg":19.93,"mean_anomaly_deg":340.1768,"bstar":0.0011785,"rev_number":5191,"period_min":93.847700772096,"perigee_km":461.54093329839,"apogee_km":463.85997719572,"semimajor_km":6840.8374552471,"source":"CELESTRAK","updated_at":"2026-05-25T13:38:20.500816Z"}}